Morro Bay Weather Center

Moon Phase Calendar



Online Cameras

 


      

Current Conditions in Morro Bay
7/15/2024 11:48:02 PM

61°F
Feels Like 62
Clear
Humidity
94%
Pressure
30"
Wind
5.4 mph (NW)
Dew Point
60°F
UV Index
0/10 (Low)
Visibility
6 mi

Hourly Forecast

Date & Time Mon, Jul 15
11:00 PM
Tue, Jul 16
12:00 AM
Tue, Jul 16
1:00 AM
Tue, Jul 16
2:00 AM
Tue, Jul 16
3:00 AM
Tue, Jul 16
4:00 AM
Tue, Jul 16
5:00 AM
Tue, Jul 16
6:00 AM
Tue, Jul 16
7:00 AM
Tue, Jul 16
8:00 AM
Tue, Jul 16
9:00 AM
Tue, Jul 16
10:00 AM
Tue, Jul 16
11:00 AM
Tue, Jul 16
12:00 PM
Tue, Jul 16
1:00 PM
Tue, Jul 16
2:00 PM
Tue, Jul 16
3:00 PM
Tue, Jul 16
4:00 PM
Tue, Jul 16
5:00 PM
Tue, Jul 16
6:00 PM
Tue, Jul 16
7:00 PM
Tue, Jul 16
8:00 PM
Tue, Jul 16
9:00 PM
Tue, Jul 16
10:00 PM
Tue, Jul 16
11:00 PM
Wed, Jul 17
12:00 AM
Wed, Jul 17
1:00 AM
Wed, Jul 17
2:00 AM
Wed, Jul 17
3:00 AM
Wed, Jul 17
4:00 AM
Wed, Jul 17
5:00 AM
Wed, Jul 17
6:00 AM
Wed, Jul 17
7:00 AM
Wed, Jul 17
8:00 AM
Wed, Jul 17
9:00 AM
Wed, Jul 17
10:00 AM
Wed, Jul 17
11:00 AM
Wed, Jul 17
12:00 PM
Wed, Jul 17
1:00 PM
Wed, Jul 17
2:00 PM
Wed, Jul 17
3:00 PM
Wed, Jul 17
4:00 PM
Wed, Jul 17
5:00 PM
Wed, Jul 17
6:00 PM
Wed, Jul 17
7:00 PM
Wed, Jul 17
8:00 PM
Wed, Jul 17
9:00 PM
Wed, Jul 17
10:00 PM
Condition
Clouds

Clear

Clear

Clear

Clear

Clear

Clear

Clear

Clear

Clear

Clear

Clear

Clear

Clouds

Clouds

Clouds

Clouds

Clouds

Clouds

Clouds

Clouds

Clouds

Clouds

Clouds

Clouds

Clear

Clear

Clear

Clear

Clear

Clear

Clear

Clear

Clear

Clear

Clear

Clear

Clouds

Clouds

Clouds

Clouds

Clouds

Clouds

Clouds

Clouds

Clouds

Clouds

Clouds
Temperature 60°F61°F60°F59°F58°F57°F56°F56°F58°F60°F61°F62°F62°F62°F62°F62°F61°F61°F60°F59°F58°F57°F56°F56°F56°F56°F56°F57°F57°F57°F57°F57°F59°F62°F64°F64°F65°F64°F63°F63°F63°F64°F63°F62°F60°F58°F58°F58°F
Feels Like 60°F62°F60°F59°F58°F57°F56°F56°F57°F59°F61°F61°F62°F61°F61°F61°F61°F60°F59°F59°F58°F56°F56°F56°F56°F56°F56°F56°F56°F57°F57°F57°F58°F61°F63°F63°F64°F63°F62°F63°F63°F63°F62°F62°F60°F58°F57°F58°F
Cloudiness 20%10%9%8%6%4%2%0%0%0%0%0%3%30%33%37%40%42%44%55%52%47%43%39%35%5%2%2%1%1%1%0%0%0%0%0%5%36%36%35%33%33%34%45%42%40%38%36%
Visibility 6 mi6 mi6 mi6 mi6 mi6 mi6 mi6 mi6 mi6 mi6 mi6 mi5 mi3 mi3 mi2 mi3 mi3 mi4 mi6 mi6 mi6 mi6 mi6 mi6 mi6 mi6 mi6 mi6 mi6 mi6 mi6 mi6 mi6 mi6 mi6 mi4 mi4 mi6 mi6 mi6 mi6 mi6 mi6 mi6 mi6 mi6 mi6 mi
Precipitation 0%0%0%0%0%0%0%0%0%0%0%0%0%0%0%0%0%0%0%0%0%0%0%0%0%0%0%0%0%0%0%0%0%0%0%0%0%0%0%0%0%0%0%0%0%0%0%0%
Humidity 94%94%93%92%92%90%89%89%85%80%76%77%77%78%78%77%79%80%82%84%86%93%95%93%92%91%88%87%86%85%84%82%78%72%68%70%70%71%73%72%73%73%75%76%81%88%89%88%
Dew Point 58°F60°F58°F57°F56°F54°F53°F52°F53°F53°F53°F53°F54°F55°F55°F54°F54°F54°F54°F54°F54°F55°F54°F54°F53°F53°F53°F52°F52°F52°F52°F51°F51°F51°F51°F52°F52°F52°F53°F53°F53°F53°F53°F54°F54°F55°F55°F54°F
Pressure 30"30"30"30"29.97"29.97"29.97"29.97"30"30"30"30"30"30.03"30.03"30"30"30"29.97"29.97"29.97"29.97"29.97"29.97"29.97"29.97"29.97"29.97"29.97"29.97"29.94"29.94"29.97"29.97"29.97"29.97"29.97"29.97"29.97"29.97"29.97"29.94"29.94"29.91"29.91"29.91"29.94"29.94"
Wind Speed 5.8 mph5.4 mph5.5 mph5.2 mph5.1 mph6 mph5.6 mph6.5 mph7.2 mph7.1 mph8.4 mph9.8 mph10.8 mph10.4 mph10.7 mph10.8 mph11.6 mph11.5 mph11.4 mph11.6 mph10.5 mph8.3 mph7.5 mph8.3 mph8.6 mph8.4 mph6.8 mph6.2 mph6 mph6.2 mph6.6 mph6.1 mph5.9 mph4.2 mph5.8 mph7.4 mph6.9 mph8.4 mph9.7 mph10 mph11.4 mph12.9 mph12.4 mph10.8 mph9.5 mph7.4 mph4.7 mph3 mph
Wind
Direction
329°
NNW
320°
NW
330°
NNW
334°
NNW
324°
NW
320°
NW
323°
NW
319°
NW
316°
NW
313°
NW
296°
WNW
291°
WNW
292°
WNW
292°
WNW
294°
WNW
295°
WNW
297°
WNW
300°
WNW
304°
NW
307°
NW
308°
NW
311°
NW
313°
NW
312°
NW
313°
NW
317°
NW
320°
NW
315°
NW
323°
NW
310°
NW
317°
NW
316°
NW
319°
NW
310°
NW
282°
WNW
285°
WNW
285°
WNW
292°
WNW
295°
WNW
300°
WNW
295°
WNW
294°
WNW
301°
WNW
302°
WNW
303°
WNW
308°
NW
303°
WNW
308°
NW

Daily Forecast

Date High Low Precip. Humidity
Today
Jul 15

Clouds
61 °F
56 °F
0%
80%
Tuesday
Jul 16

Clouds
62 °F
56 °F
0%
78%
Wednesday
Jul 17

Clouds
65 °F
56 °F
0%
73%
Thursday
Jul 18

Clouds
66 °F
58 °F
0%
73%
Friday
Jul 19

Clouds
65 °F
57 °F
0%
75%
Saturday
Jul 20

Clouds
63 °F
57 °F
0%
78%
Sunday
Jul 21

Clouds
63 °F
56 °F
0%
79%
Monday
Jul 22

Clouds
64 °F
56 °F
0%
75%
Tuesday
Jul 23

Clouds
64 °F
57 °F
0%
75%
Wednesday
Jul 24

Clouds
64 °F
57 °F
0%
77%
Thursday
Jul 25

Clouds
62 °F
55 °F
0%
79%
Friday
Jul 26

Clouds
61 °F
55 °F
0%
78%
Saturday
Jul 27

Clouds
62 °F
56 °F
0%
75%
Sunday
Jul 28

Clouds
63 °F
57 °F
0%
80%
Monday
Jul 29

Clouds
63 °F
57 °F
0%
77%
Tuesday
Jul 30

Clouds
63 °F
56 °F
0%
74%

Temperature 8-14 Day Outlook



Precipitation 8-14 Day Outlook






About Us
Contact Us
Site Map
Search Site
Advertise With Us
   
MorroBay.USCoast.info
THE MORRO BAY WEBSITE

Copyright 2024, Coastal Town
Privacy    |    Legal